This is the latest recevied weather packets stored in our database for station/object LZ1HCO-25. If no packets are shown the sender has not sent any weather packets the latest 10 day(s).
| Time | Temp. | Humidity | Pressure | Rain* | Wind** | Luminosity | Snow |
|---|---|---|---|---|---|---|---|
| 1777721147 | 15.56° C | 71% | 974 hPa | - | - | 0 W/m² | - |
| 1777720836 | 13.89° C | 67% | 974 hPa | - | - | 0 W/m² | - |
| 1777720525 | 13.89° C | 66% | 974 hPa | - | - | 0 W/m² | - |
| 1777720213 | 13.89° C | 62% | 974 hPa | - | - | 0 W/m² | - |
| 1777719902 | 13.89° C | 65% | 974 hPa | - | - | 0 W/m² | - |
| 1777719591 | 13.89° C | 64% | 974 hPa | - | - | 0 W/m² | - |
| 1777719279 | 15° C | 64% | 974 hPa | - | - | 0 W/m² | - |
| 1777718968 | 14.44° C | 64% | 974 hPa | - | - | 0 W/m² | - |
| 1777718656 | 14.44° C | 66% | 974 hPa | - | - | 0 W/m² | - |
| 1777718345 | 13.89° C | 61% | 974 hPa | - | - | 0 W/m² | - |
| 1777718034 | 14.44° C | 66% | 974 hPa | - | - | 0 W/m² | - |
| 1777717722 | 13.33° C | 66% | 974 hPa | - | - | 0 W/m² | - |
| 1777717411 | 14.44° C | 64% | 974 hPa | - | - | 0 W/m² | - |
| 1777717100 | 14.44° C | 67% | 975 hPa | - | - | 0 W/m² | - |
| 1777716788 | 15° C | 65% | 975 hPa | - | - | 0 W/m² | - |
| 1777716477 | 15° C | 68% | 975 hPa | - | - | 0 W/m² | - |
| 1777716166 | 15° C | 68% | 975 hPa | - | - | 0 W/m² | - |
| 1777715854 | 13.89° C | 64% | 975 hPa | - | - | 0 W/m² | - |
| 1777715543 | 15° C | 66% | 975 hPa | - | - | 0 W/m² | - |
| 1777715232 | 15° C | 65% | 975 hPa | - | - | 0 W/m² | - |
| 1777714920 | 13.89° C | 70% | 975 hPa | - | - | 0 W/m² | - |
| 1777714609 | 13.89° C | 67% | 975 hPa | - | - | 0 W/m² | - |
| 1777714297 | 14.44° C | 65% | 975 hPa | - | - | 0 W/m² | - |
| 1777713986 | 15.56° C | 68% | 975 hPa | - | - | 0 W/m² | - |
| 1777713675 | 15° C | 70% | 975 hPa | - | - | 0 W/m² | - |
* Rain since midnight (hover to see other rain measurements)
** Current wind speed in m/s (hover to see current wind gust speed)